| time (UTC) | temp C | wind direction | speed KPH | gust KPH | rain 1hr cm | rain 24hr cm | rain mn cm | humidity % | barometer mb |
| 20260507160029 | 16 | 30 | 0.0 | 12.9 | 0.00 | 0.00 | 0.00 | 51 | 1015.3 |
| 20260507154524 | 15 | 278 | 1.6 | 8.0 | 0.00 | 0.00 | 0.00 | 50 | 1015.3 |
| 20260507153016 | 15 | 274 | 1.6 | 9.7 | 0.00 | 0.00 | 0.00 | 52 | 1015.5 |
| 20260507151509 | 14 | 276 | 1.6 | 14.5 | 0.00 | 0.00 | 0.00 | 53 | 1015.6 |
| 20260507150014 | 13 | 257 | 0.0 | 14.5 | 0.00 | 0.00 | 0.00 | 57 | 1016.0 |
| 20260507144529 | 13 | 259 | 0.0 | 11.3 | 0.00 | 0.00 | 0.00 | 60 | 1016.0 |
| 20260507143025 | 12 | 226 | 0.0 | 14.5 | 0.00 | 0.00 | 0.00 | 62 | 1016.1 |
| 20260507141510 | 12 | 235 | 0.0 | 3.2 | 0.00 | 0.00 | 0.00 | 64 | 1016.2 |
| 20260507140014 | 11 | 268 | 0.0 | 12.9 | 0.00 | 0.00 | 0.00 | 68 | 1016.4 |
| 20260507134523 | 10 | 293 | 0.0 | 4.8 | 0.00 | 0.00 | 0.00 | 70 | 1016.6 |
| 20260507133026 | 10 | 238 | 0.0 | 8.0 | 0.00 | 0.00 | 0.00 | 73 | 1016.7 |
| 20260507131530 | 9 | 220 | 0.0 | 3.2 | 0.00 | 0.00 | 0.00 | 77 | 1016.6 |
| 20260507130033 | 8 | 218 | 0.0 | 3.2 | 0.00 | 0.00 | 0.00 | 79 | 1016.5 |
| 20260507124517 | 7 | 267 | 0.0 | 1.6 | 0.00 | 0.00 | 0.00 | 81 | 1016.5 |
| 20260507123032 | 7 | 293 | 0.0 | 1.6 | 0.00 | 0.00 | 0.00 | 83 | 1016.5 |
| 20260507121527 | 6 | 274 | 0.0 | 1.6 | 0.00 | 0.00 | 0.00 | 84 | 1016.4 |
| 20260507120028 | 6 | 264 | 0.0 | 1.6 | 0.00 | 0.00 | 0.00 | 86 | 1016.5 |
| 20260507114529 | 6 | 236 | 0.0 | 0.0 | 0.00 | 0.00 | 0.00 | 85 | 1016.9 |
| 20260507113026 | 6 | 252 | 0.0 | 0.0 | 0.00 | 0.00 | 0.00 | 84 | 1016.8 |
| 20260507111522 | 6 | 260 | 0.0 | 1.6 | 0.00 | 0.00 | 0.00 | 83 | 1016.8 |
| 20260507110031 | 6 | 238 | 0.0 | 0.0 | 0.00 | 0.00 | 0.00 | 83 | 1016.9 |
| 20260507104527 | 6 | 249 | 0.0 | 0.0 | 0.00 | 0.00 | 0.00 | 83 | 1017.1 |
| 20260507103032 | 6 | 251 | 0.0 | 0.0 | 0.00 | 0.00 | 0.00 | 85 | 1017.2 |
| 20260507101519 | 5 | 262 | 0.0 | 0.0 | 0.00 | 0.00 | 0.00 | 87 | 1017.3 |
| 20260507100005 | 5 | 272 | 0.0 | 0.0 | 0.00 | 0.00 | 0.00 | 88 | 1017.4 |
| 20260507094507 | 5 | 276 | 0.0 | 0.0 | 0.00 | 0.00 | 0.00 | 86 | 1017.3 |
| 20260507093010 | 6 | 277 | 0.0 | 0.0 | 0.00 | 0.00 | 0.00 | 87 | 1017.3 |
| 20260507091513 | 6 | 274 | 0.0 | 0.0 | 0.00 | 0.03 | 0.00 | 87 | 1017.2 |
| 20260507090022 | 6 | 53 | 0.0 | 0.0 | 0.00 | 0.08 | 0.00 | 84 | 1017.3 |
| 20260507084524 | 7 | 63 | 0.0 | 0.0 | 0.00 | 0.08 | 0.00 | 82 | 1017.4 |
| 20260507083008 | 7 | 241 | 0.0 | 0.0 | 0.00 | 0.10 | 0.00 | 81 | 1017.6 |
| 20260507081513 | 8 | 287 | 0.0 | 1.6 | 0.00 | 0.13 | 0.00 | 80 | 1017.8 |
| 20260507080022 | 8 | 276 | 0.0 | 3.2 | 0.00 | 0.13 | 0.00 | 80 | 1018.0 |
| 20260507074522 | 8 | 253 | 0.0 | 3.2 | 0.00 | 0.13 | 0.00 | 79 | 1018.1 |
| 20260507073027 | 8 | 250 | 0.0 | 4.8 | 0.00 | 0.13 | 0.00 | 78 | 1018.2 |
| 20260507071509 | 8 | 266 | 0.0 | 4.8 | 0.00 | 0.13 | 0.00 | 78 | 1018.3 |
| 20260507070014 | 8 | 262 | 0.0 | 1.6 | 0.00 | 0.15 | 0.00 | 77 | 1018.4 |
| 20260507064519 | 9 | 264 | 0.0 | 1.6 | 0.00 | 0.15 | 0.00 | 76 | 1018.6 |
| 20260507063021 | 10 | 269 | 0.0 | 1.6 | 0.00 | 0.15 | 0.00 | 74 | 1018.6 |
| 20260507061527 | 10 | 276 | 0.0 | 0.0 | 0.00 | 0.15 | 0.00 | 72 | 1018.7 |
| 20260507060011 | 10 | 262 | 0.0 | 1.6 | 0.00 | 0.15 | 0.00 | 70 | 1018.7 |
| 20260507054515 | 10 | 263 | 0.0 | 0.0 | 0.00 | 0.15 | 0.00 | 69 | 1018.7 |
| 20260507053022 | 10 | 274 | 0.0 | 1.6 | 0.00 | 0.15 | 0.00 | 67 | 1018.8 |
| 20260507051525 | 11 | 271 | 0.0 | 0.0 | 0.00 | 0.15 | 0.00 | 66 | 1018.8 |
| 20260507050036 | 11 | 239 | 0.0 | 0.0 | 0.00 | 0.15 | 0.00 | 66 | 1018.9 |
| 20260507044509 | 11 | 259 | 0.0 | 0.0 | 0.00 | 0.15 | 0.15 | 65 | 1018.9 |
| 20260507043018 | 11 | 266 | 0.0 | 0.0 | 0.00 | 0.15 | 0.15 | 63 | 1019.1 |
| 20260507041536 | 11 | 278 | 0.0 | 1.6 | 0.00 | 0.15 | 0.15 | 62 | 1018.9 |
| 20260507040025 | 11 | 266 | 0.0 | 0.0 | 0.00 | 0.15 | 0.15 | 61 | 1018.9 |
| 20260507034526 | 11 | 275 | 0.0 | 0.0 | 0.00 | 0.15 | 0.15 | 59 | 1018.9 |
| 20260507033014 | 11 | 257 | 0.0 | 1.6 | 0.00 | 0.15 | 0.15 | 60 | 1018.9 |
| 20260507031519 | 11 | 295 | 0.0 | 0.0 | 0.00 | 0.15 | 0.15 | 61 | 1019.0 |
| 20260507030021 | 11 | 250 | 0.0 | 0.0 | 0.00 | 0.18 | 0.15 | 61 | 1018.9 |
| 20260507024528 | 11 | 269 | 0.0 | 0.0 | 0.00 | 0.20 | 0.15 | 60 | 1018.7 |
| 20260507023010 | 12 | 269 | 0.0 | 0.0 | 0.00 | 0.28 | 0.15 | 58 | 1018.6 |
| 20260507021513 | 12 | 271 | 0.0 | 0.0 | 0.00 | 0.30 | 0.15 | 57 | 1018.7 |
| 20260507020014 | 11 | 248 | 0.0 | 0.0 | 0.00 | 0.36 | 0.15 | 58 | 1018.8 |
| 20260507014515 | 11 | 269 | 0.0 | 0.0 | 0.00 | 0.38 | 0.15 | 59 | 1018.5 |
| 20260507013026 | 11 | 269 | 0.0 | 0.0 | 0.00 | 0.38 | 0.15 | 56 | 1018.3 |
| 20260507011529 | 12 | 250 | 0.0 | 0.0 | 0.00 | 0.41 | 0.15 | 54 | 1018.2 |
| 20260507010013 | 12 | 266 | 0.0 | 0.0 | 0.00 | 0.43 | 0.15 | 52 | 1018.0 |
| 20260507004518 | 13 | 256 | 0.0 | 0.0 | 0.00 | 0.43 | 0.15 | 50 | 1018.1 |
| 20260507003004 | 14 | 260 | 0.0 | 0.0 | 0.00 | 0.43 | 0.15 | 48 | 1018.1 |
| 20260507001508 | 14 | 257 | 0.0 | 0.0 | 0.00 | 0.43 | 0.15 | 45 | 1018.1 |
| 20260507000022 | 15 | 271 | 0.0 | 1.6 | 0.00 | 0.43 | 0.15 | 45 | 1018.3 |
| 20260506234514 | 16 | 285 | 0.0 | 3.2 | 0.00 | 0.43 | 0.15 | 44 | 1018.3 |
| 20260506233021 | 15 | 270 | 0.0 | 0.0 | 0.00 | 0.43 | 0.15 | 46 | 1018.3 |
| 20260506231504 | 16 | 266 | 0.0 | 1.6 | 0.00 | 0.43 | 0.15 | 43 | 1018.1 |
| 20260506230008 | 16 | 258 | 0.0 | 0.0 | 0.00 | 0.43 | 0.15 | 43 | 1018.3 |
| 20260506224516 | 16 | 252 | 0.0 | 1.6 | 0.00 | 0.43 | 0.15 | 43 | 1018.2 |
| 20260506223016 | 16 | 269 | 0.0 | 1.6 | 0.00 | 0.43 | 0.15 | 42 | 1018.2 |
| 20260506221517 | 17 | 271 | 0.0 | 1.6 | 0.00 | 0.43 | 0.15 | 39 | 1018.2 |
| 20260506220007 | 17 | 268 | 0.0 | 1.6 | 0.00 | 0.43 | 0.15 | 41 | 1018.5 |
| 20260506214511 | 17 | 136 | 0.0 | 1.6 | 0.00 | 0.43 | 0.15 | 38 | 1018.4 |
| 20260506213016 | 16 | 315 | 0.0 | 1.6 | 0.00 | 0.43 | 0.15 | 43 | 1018.4 |
| 20260506211520 | 15 | 41 | 0.0 | 1.6 | 0.00 | 0.43 | 0.15 | 41 | 1018.5 |
| 20260506210020 | 15 | 233 | 0.0 | 1.6 | 0.00 | 0.43 | 0.15 | 42 | 1018.7 |
| 20260506204510 | 16 | 241 | 0.0 | 1.6 | 0.00 | 0.43 | 0.15 | 42 | 1019.0 |
| 20260506203011 | 16 | 231 | 0.0 | 1.6 | 0.00 | 0.43 | 0.15 | 37 | 1019.3 |
| 20260506201522 | 15 | 248 | 0.0 | 3.2 | 0.00 | 0.43 | 0.15 | 40 | 1019.5 |
| 20260506200023 | 16 | 110 | 0.0 | 1.6 | 0.00 | 0.43 | 0.15 | 41 | 1019.7 |
| 20260506194524 | 16 | 76 | 0.0 | 1.6 | 0.00 | 0.43 | 0.15 | 43 | 1019.8 |
| 20260506193024 | 15 | 81 | 0.0 | 1.6 | 0.00 | 0.43 | 0.15 | 40 | 1019.9 |
| 20260506191518 | 16 | 131 | 0.0 | 1.6 | 0.00 | 0.43 | 0.15 | 40 | 1019.9 |
| 20260506190021 | 16 | 123 | 0.0 | 1.6 | 0.00 | 0.43 | 0.15 | 38 | 1020.0 |
| 20260506184525 | 17 | 129 | 0.0 | 1.6 | 0.00 | 0.43 | 0.15 | 39 | 1020.0 |
| 20260506183028 | 16 | 141 | 0.0 | 1.6 | 0.00 | 0.43 | 0.15 | 38 | 1020.1 |
| 20260506181531 | 15 | 31 | 0.0 | 1.6 | 0.00 | 0.43 | 0.15 | 39 | 1020.0 |
| 20260506180031 | 15 | 70 | 0.0 | 3.2 | 0.00 | 0.43 | 0.15 | 40 | 1020.1 |
| 20260506174527 | 13 | 98 | 0.0 | 4.8 | 0.00 | 0.43 | 0.15 | 45 | 1020.2 |
| 20260506173008 | 14 | 103 | 0.0 | 1.6 | 0.00 | 0.43 | 0.15 | 44 | 1020.2 |
| 20260506171521 | 13 | 96 | 0.0 | 3.2 | 0.00 | 0.43 | 0.15 | 45 | 1020.5 |
| 20260506170017 | 13 | 309 | 0.0 | 1.6 | 0.00 | 0.43 | 0.15 | 47 | 1020.6 |
| 20260506164521 | 13 | 298 | 0.0 | 6.4 | 0.00 | 0.43 | 0.15 | 48 | 1020.6 |
| 20260506163007 | 13 | 310 | 0.0 | 4.8 | 0.00 | 0.43 | 0.15 | 46 | 1020.8 |
| 20260506161516 | 12 | 328 | 0.0 | 1.6 | 0.00 | 0.43 | 0.15 | 52 | 1020.6 |